DLH5MA EKCH-EDDM

Flight info

Callsign DLH5MA
Flight time 1h 11m
Altitude 37000
Route SALLO M44 KOGIM DCT MAREM/N0423F340 DCT VESUB T106 TUSTO T108 LANDU LANDU2A
Aircraft A320/M-SDE2E3FGIJ1LORWXYZ/HB1

Departure

Time 2026-04-30 13:39
Airport Copenhagen Kastrup Airport (EKCH)

Arrival

Time 2026-04-30 14:50
Airport Munich Airport (EDDM)
Time Latitude Longitude Altitude Speed Heading
2026-04-30 13:04 55.62702 12.64167 24 ft 0 kts 32°
2026-04-30 13:13 55.62702 12.64166 24 ft 0 kts 32°
2026-04-30 13:30 55.62654 12.64081 24 ft 4 kts 85°
2026-04-30 13:31 55.62655 12.64056 27 ft 0 kts 123°
2026-04-30 13:32 55.62652 12.64065 24 ft 5 kts 123°
2026-04-30 13:33 55.62558 12.64318 24 ft 12 kts 123°
2026-04-30 13:33 55.62454 12.64597 24 ft 20 kts 124°
2026-04-30 13:34 55.62375 12.64810 24 ft 21 kts 122°
2026-04-30 13:34 55.62100 12.65053 24 ft 16 kts 213°
2026-04-30 13:35 55.62000 12.64937 24 ft 19 kts 213°
2026-04-30 13:35 55.61760 12.64663 25 ft 19 kts 213°
2026-04-30 13:36 55.61549 12.64420 26 ft 17 kts 213°
2026-04-30 13:36 55.61440 12.64292 25 ft 22 kts 214°
2026-04-30 13:36 55.61160 12.63970 24 ft 23 kts 213°
2026-04-30 13:37 55.61026 12.63816 24 ft 22 kts 213°
2026-04-30 13:37 55.60804 12.63597 24 ft 14 kts 171°
2026-04-30 13:38 55.60686 12.63844 28 ft 15 kts 88°
2026-04-30 13:38 55.60789 12.64039 26 ft 45 kts 41°
2026-04-30 13:38 55.61953 12.65828 197 ft 153 kts 39°
2026-04-30 13:39 55.63622 12.68405 1502 ft 173 kts 36°
2026-04-30 13:39 55.65626 12.71469 2362 ft 211 kts 36°
2026-04-30 13:40 55.66807 12.73239 2833 ft 234 kts 36°
2026-04-30 13:40 55.68117 12.75187 3488 ft 252 kts 37°
2026-04-30 13:40 55.69366 12.77414 4480 ft 260 kts 53°
2026-04-30 13:40 55.69905 12.79389 5192 ft 266 kts 70°
2026-04-30 13:41 55.69928 12.83749 6562 ft 276 kts 104°
2026-04-30 13:41 55.68970 12.86745 7554 ft 286 kts 130°
2026-04-30 13:41 55.67302 12.88722 8500 ft 295 kts 155°
2026-04-30 13:41 55.65362 12.89994 9460 ft 299 kts 158°
2026-04-30 13:42 55.63316 12.90824 10391 ft 306 kts 173°
2026-04-30 13:42 55.61123 12.90901 10895 ft 326 kts 174°
2026-04-30 13:42 55.56636 12.93283 11944 ft 349 kts 153°
2026-04-30 13:43 55.54397 12.95028 12711 ft 354 kts 151°
2026-04-30 13:43 55.52140 12.96826 13529 ft 358 kts 151°
2026-04-30 13:43 55.49842 12.98607 14330 ft 363 kts 152°
2026-04-30 13:43 55.47500 13.00345 15023 ft 367 kts 152°
2026-04-30 13:44 55.45117 13.02050 15717 ft 372 kts 153°
2026-04-30 13:44 55.43486 13.03192 16181 ft 375 kts 153°
2026-04-30 13:44 55.41073 13.04857 16867 ft 379 kts 153°
2026-04-30 13:44 55.38598 13.06551 17564 ft 384 kts 153°
2026-04-30 13:45 55.33564 13.09995 18860 ft 392 kts 153°
2026-04-30 13:45 55.31009 13.11751 19432 ft 396 kts 153°
2026-04-30 13:45 55.28420 13.13534 20001 ft 400 kts 153°
2026-04-30 13:46 55.25816 13.15329 20570 ft 404 kts 154°
2026-04-30 13:46 55.23185 13.17144 21140 ft 408 kts 154°
2026-04-30 13:46 55.20530 13.18972 21690 ft 412 kts 154°
2026-04-30 13:46 55.17849 13.20811 22230 ft 415 kts 154°
2026-04-30 13:47 55.15140 13.22667 22770 ft 419 kts 154°
2026-04-30 13:47 55.12412 13.24530 23303 ft 423 kts 154°
2026-04-30 13:47 55.09659 13.26407 23835 ft 426 kts 154°
2026-04-30 13:47 55.06878 13.28300 24255 ft 431 kts 154°
2026-04-30 13:48 55.04073 13.30209 24697 ft 434 kts 154°
2026-04-30 13:48 55.01250 13.32132 25138 ft 437 kts 154°
2026-04-30 13:48 54.98410 13.34063 25570 ft 440 kts 154°
2026-04-30 13:48 54.95553 13.35999 25998 ft 442 kts 154°
2026-04-30 13:49 54.92662 13.37898 26424 ft 447 kts 158°
2026-04-30 13:49 54.89624 13.39183 26828 ft 454 kts 167°
2026-04-30 13:49 54.86490 13.40003 27235 ft 457 kts 168°
2026-04-30 13:49 54.83376 13.40824 27644 ft 459 kts 168°
2026-04-30 13:50 54.80212 13.41673 28044 ft 462 kts 168°
2026-04-30 13:50 54.73825 13.43409 28837 ft 467 kts 168°
2026-04-30 13:50 54.70607 13.44284 29242 ft 469 kts 168°
2026-04-30 13:51 54.67372 13.45160 29628 ft 472 kts 168°
2026-04-30 13:51 54.64118 13.46033 29998 ft 474 kts 168°
2026-04-30 13:51 54.60835 13.46908 30370 ft 477 kts 168°
2026-04-30 13:51 54.57548 13.47783 30689 ft 479 kts 168°
2026-04-30 13:52 54.54248 13.48658 30992 ft 481 kts 168°
2026-04-30 13:52 54.50925 13.49534 31308 ft 483 kts 168°
2026-04-30 13:52 54.47592 13.50407 31636 ft 485 kts 167°
2026-04-30 13:52 54.44245 13.51266 31873 ft 488 kts 168°
2026-04-30 13:53 54.40871 13.52117 32174 ft 489 kts 168°
2026-04-30 13:53 54.37504 13.52957 32591 ft 488 kts 168°
2026-04-30 13:53 54.34147 13.53787 33015 ft 487 kts 168°
2026-04-30 13:53 54.30777 13.54406 33426 ft 488 kts 174°
2026-04-30 13:54 54.27423 13.54507 33836 ft 488 kts 176°
2026-04-30 13:54 54.24029 13.54586 34259 ft 487 kts 175°
2026-04-30 13:54 54.20652 13.54666 34660 ft 485 kts 175°
2026-04-30 13:54 54.17278 13.54749 35011 ft 484 kts 175°
2026-04-30 13:55 54.13911 13.54832 35350 ft 483 kts 176°
2026-04-30 13:55 54.10551 13.54921 35678 ft 483 kts 176°
2026-04-30 13:55 54.07192 13.55014 35986 ft 482 kts 176°
2026-04-30 13:55 54.03832 13.55105 36292 ft 482 kts 176°
2026-04-30 13:56 54.00478 13.55192 36585 ft 481 kts 176°
2026-04-30 13:56 53.97129 13.55275 36877 ft 481 kts 176°
2026-04-30 13:56 53.93779 13.55361 37157 ft 481 kts 176°
2026-04-30 13:56 53.90428 13.55449 37390 ft 481 kts 176°
2026-04-30 13:57 53.83748 13.55619 37446 ft 479 kts 176°
2026-04-30 13:57 53.77090 13.55778 37445 ft 478 kts 176°
2026-04-30 13:58 53.67109 13.56018 37441 ft 478 kts 176°
2026-04-30 13:59 53.60495 13.56183 37439 ft 478 kts 176°
2026-04-30 13:59 53.53834 13.56353 37441 ft 478 kts 176°
2026-04-30 14:00 53.47169 13.56521 37457 ft 479 kts 175°
2026-04-30 14:00 53.37136 13.56768 37426 ft 481 kts 176°
2026-04-30 14:01 53.30433 13.56926 37434 ft 482 kts 176°
2026-04-30 14:01 53.23724 13.57094 37430 ft 482 kts 176°
2026-04-30 14:02 53.17006 13.57264 37434 ft 483 kts 175°
2026-04-30 14:02 53.10277 13.57422 37434 ft 483 kts 176°
2026-04-30 14:03 53.03549 13.57587 37440 ft 484 kts 175°
2026-04-30 14:03 52.96853 13.57744 37450 ft 484 kts 176°
2026-04-30 14:04 52.90119 13.57901 37453 ft 484 kts 175°
2026-04-30 14:04 52.83383 13.58067 37443 ft 484 kts 175°
2026-04-30 14:05 52.76645 13.58230 37444 ft 484 kts 175°
2026-04-30 14:05 52.69906 13.58380 37450 ft 484 kts 175°
2026-04-30 14:06 52.59790 13.58614 37453 ft 484 kts 175°
2026-04-30 14:07 52.49672 13.58860 37479 ft 485 kts 175°
2026-04-30 14:08 52.39539 13.59097 37475 ft 486 kts 175°
2026-04-30 14:08 52.29439 13.59332 37471 ft 486 kts 175°
2026-04-30 14:09 52.22676 13.59489 37467 ft 486 kts 175°
2026-04-30 14:10 52.12527 13.59736 37458 ft 486 kts 175°
2026-04-30 14:10 52.05757 13.59905 37455 ft 486 kts 175°
2026-04-30 14:11 51.98974 13.60057 37451 ft 487 kts 175°
2026-04-30 14:11 51.92204 13.60204 37460 ft 487 kts 175°
2026-04-30 14:12 51.85422 13.60355 37465 ft 487 kts 175°
2026-04-30 14:12 51.78690 13.60509 37465 ft 487 kts 175°
2026-04-30 14:13 51.71918 13.60666 37473 ft 487 kts 175°
2026-04-30 14:13 51.65138 13.60818 37471 ft 487 kts 175°
2026-04-30 14:14 51.58363 13.60969 37469 ft 487 kts 175°
2026-04-30 14:14 51.51576 13.61122 37468 ft 488 kts 175°
2026-04-30 14:15 51.44778 13.61275 37467 ft 488 kts 175°
2026-04-30 14:15 51.37979 13.61426 37468 ft 489 kts 175°
2026-04-30 14:16 51.31181 13.61583 37468 ft 489 kts 175°
2026-04-30 14:16 51.24384 13.61736 37471 ft 489 kts 175°
2026-04-30 14:17 51.17577 13.61889 37472 ft 489 kts 175°
2026-04-30 14:17 51.10780 13.62040 37474 ft 488 kts 175°
2026-04-30 14:18 51.03978 13.62182 37478 ft 488 kts 175°
2026-04-30 14:18 50.93810 13.62387 37476 ft 488 kts 175°
2026-04-30 14:19 50.83613 13.62619 37468 ft 488 kts 175°
2026-04-30 14:20 50.76817 13.62783 37474 ft 488 kts 175°
2026-04-30 14:20 50.66698 13.60466 37448 ft 497 kts 196°
2026-04-30 14:21 50.60093 13.57148 37435 ft 498 kts 195°
2026-04-30 14:22 50.50171 13.52234 37451 ft 498 kts 195°
2026-04-30 14:22 50.40259 13.47328 37454 ft 498 kts 195°
2026-04-30 14:23 50.27073 13.40814 37455 ft 498 kts 195°
2026-04-30 14:24 50.17153 13.35968 37459 ft 498 kts 195°
2026-04-30 14:25 50.05036 13.30046 37459 ft 498 kts 195°
2026-04-30 14:26 49.95107 13.25225 37458 ft 498 kts 195°
2026-04-30 14:27 49.85167 13.20418 37455 ft 499 kts 195°
2026-04-30 14:27 49.78539 13.17226 37453 ft 499 kts 195°
2026-04-30 14:28 49.68498 13.12414 36507 ft 517 kts 194°
2026-04-30 14:28 49.65032 13.10757 35592 ft 521 kts 194°
2026-04-30 14:28 49.61602 13.09116 35150 ft 513 kts 193°
2026-04-30 14:29 49.54828 13.05872 33892 ft 506 kts 193°
2026-04-30 14:29 49.48044 13.02649 32066 ft 510 kts 193°
2026-04-30 14:30 49.38176 12.97020 30091 ft 502 kts 202°
2026-04-30 14:31 49.31938 12.92462 28802 ft 491 kts 203°
2026-04-30 14:31 49.25840 12.88017 27577 ft 480 kts 203°
2026-04-30 14:31 49.22858 12.85848 27189 ft 470 kts 203°
2026-04-30 14:32 49.17509 12.80428 26446 ft 454 kts 228°
2026-04-30 14:32 49.15548 12.76708 26191 ft 448 kts 234°
2026-04-30 14:32 49.13674 12.72927 25941 ft 445 kts 234°
2026-04-30 14:33 49.11825 12.69150 25699 ft 443 kts 235°
2026-04-30 14:33 49.08167 12.61637 25205 ft 438 kts 235°
2026-04-30 14:33 49.06378 12.57991 24782 ft 433 kts 234°
2026-04-30 14:34 49.04570 12.54320 24239 ft 431 kts 234°
2026-04-30 14:34 49.02770 12.50674 23662 ft 429 kts 234°
2026-04-30 14:34 49.00979 12.47055 23108 ft 426 kts 234°
2026-04-30 14:34 48.99199 12.43470 22561 ft 423 kts 234°
2026-04-30 14:35 48.95666 12.36372 21451 ft 418 kts 234°
2026-04-30 14:35 48.93914 12.32861 20903 ft 416 kts 234°
2026-04-30 14:35 48.92168 12.29358 20350 ft 414 kts 234°
2026-04-30 14:36 48.90427 12.25871 19798 ft 413 kts 234°
2026-04-30 14:36 48.88692 12.22403 19251 ft 412 kts 234°
2026-04-30 14:36 48.86966 12.18953 18842 ft 406 kts 234°
2026-04-30 14:36 48.85258 12.15534 18238 ft 406 kts 234°
2026-04-30 14:37 48.83565 12.12146 17846 ft 399 kts 233°
2026-04-30 14:37 48.81892 12.08811 17313 ft 396 kts 233°
2026-04-30 14:37 48.80246 12.05533 16827 ft 393 kts 233°
2026-04-30 14:37 48.78591 12.02244 16362 ft 390 kts 233°
2026-04-30 14:38 48.76950 11.98989 15895 ft 387 kts 233°
2026-04-30 14:38 48.75323 11.95768 15436 ft 384 kts 233°
2026-04-30 14:38 48.73703 11.92569 14991 ft 381 kts 233°
2026-04-30 14:38 48.72102 11.89406 14549 ft 378 kts 233°
2026-04-30 14:39 48.70506 11.86254 14079 ft 374 kts 232°
2026-04-30 14:39 48.68926 11.83135 13602 ft 371 kts 232°
2026-04-30 14:39 48.67362 11.80050 13080 ft 368 kts 232°
2026-04-30 14:40 48.64261 11.73958 12133 ft 361 kts 232°
2026-04-30 14:40 48.62738 11.70966 11640 ft 358 kts 232°
2026-04-30 14:40 48.61216 11.67977 11166 ft 356 kts 232°
2026-04-30 14:40 48.59748 11.65097 11028 ft 343 kts 231°
2026-04-30 14:41 48.58319 11.62295 10904 ft 330 kts 231°
2026-04-30 14:41 48.56936 11.59589 10755 ft 320 kts 231°
2026-04-30 14:41 48.55762 11.56800 10556 ft 313 kts 248°
2026-04-30 14:41 48.55097 11.53670 10098 ft 314 kts 255°
2026-04-30 14:42 48.54539 11.50511 9563 ft 307 kts 255°
2026-04-30 14:42 48.53864 11.47508 9040 ft 297 kts 239°
2026-04-30 14:42 48.52510 11.45223 8620 ft 291 kts 212°
2026-04-30 14:42 48.50705 11.44012 8229 ft 282 kts 186°
2026-04-30 14:43 48.48781 11.43463 7828 ft 280 kts 184°
2026-04-30 14:43 48.46866 11.42983 7457 ft 278 kts 184°
2026-04-30 14:43 48.44961 11.42517 7087 ft 277 kts 185°
2026-04-30 14:43 48.43069 11.42066 6718 ft 275 kts 184°
2026-04-30 14:44 48.41186 11.41754 6326 ft 268 kts 172°
2026-04-30 14:44 48.39359 11.42137 5966 ft 262 kts 165°
2026-04-30 14:44 48.37649 11.42903 5689 ft 250 kts 150°
2026-04-30 14:44 48.36241 11.44295 5616 ft 238 kts 134°
2026-04-30 14:45 48.35185 11.46143 5450 ft 230 kts 118°
2026-04-30 14:45 48.34534 11.48228 5256 ft 220 kts 105°
2026-04-30 14:45 48.34276 11.50449 4993 ft 210 kts 91°
2026-04-30 14:45 48.34374 11.52584 4723 ft 200 kts 83°
2026-04-30 14:46 48.34537 11.54616 4461 ft 193 kts 83°
2026-04-30 14:46 48.34694 11.56595 4201 ft 187 kts 83°
2026-04-30 14:46 48.34845 11.58500 3987 ft 180 kts 83°
2026-04-30 14:46 48.34993 11.60308 3846 ft 170 kts 82°
2026-04-30 14:47 48.35165 11.62063 3567 ft 168 kts 81°
2026-04-30 14:47 48.35329 11.63729 3391 ft 153 kts 83°
2026-04-30 14:47 48.35415 11.65219 3268 ft 134 kts 85°
2026-04-30 14:47 48.35482 11.66547 3144 ft 125 kts 84°
2026-04-30 14:48 48.35571 11.67859 2850 ft 129 kts 83°
2026-04-30 14:48 48.35693 11.69193 2617 ft 127 kts 82°
2026-04-30 14:48 48.35812 11.70529 2467 ft 129 kts 84°
2026-04-30 14:48 48.35901 11.71867 2236 ft 127 kts 84°
2026-04-30 14:49 48.35994 11.73182 2075 ft 126 kts 82°
2026-04-30 14:49 48.36105 11.74478 1857 ft 125 kts 83°
2026-04-30 14:49 48.36202 11.75790 1662 ft 127 kts 84°
2026-04-30 14:49 48.36304 11.77081 1508 ft 121 kts 84°
2026-04-30 14:50 48.36401 11.78746 1481 ft 32 kts 109°
2026-04-30 14:50 48.36330 11.79006 1481 ft 24 kts 114°
2026-04-30 14:51 48.36215 11.79290 1481 ft 13 kts 158°
2026-04-30 14:51 48.36129 11.79314 1481 ft 11 kts 176°
2026-04-30 14:51 48.36000 11.79331 1478 ft 8 kts 174°
2026-04-30 14:52 48.35950 11.79340 1483 ft 7 kts 171°
2026-04-30 14:52 48.35842 11.79386 1482 ft 9 kts 174°
2026-04-30 14:52 48.35780 11.79398 1480 ft 9 kts 173°
2026-04-30 14:53 48.35672 11.79419 1475 ft 7 kts 172°
2026-04-30 14:53 48.35629 11.79424 1485 ft 5 kts 188°
2026-04-30 14:54 48.35606 11.79335 1485 ft 6 kts 266°
2026-04-30 14:54 48.35600 11.79262 1478 ft 0 kts 263°
2026-04-30 14:55 48.35600 11.79261 1478 ft 0 kts 263°